Lapse_Rate
6.3 6.2 6.1 6.2 6.3 6.3 6.3 6.4 6.4 6.6 6.7 6.7 6.8 6.9 7.0 7.1 7.2 7.4 7.4 7.4 7.5 7.4 7.3 7.3 7.2 7.2 7.1 7.1 7.0 7.0 7.2 7.0 7.0 7.2 7.1 7.0 7.2 7.2 7.5 7.3 7.4 7.7 8.0 8.2 8.2 8.4 8.7
6.6 6.2 6.3 6.3 6.1 6.3 6.3 6.4 6.4 6.6 6.7 6.7 6.8 6.9 7.0 7.2 7.3 7.3 7.3 7.5 7.5 7.5 7.5 7.4 7.3 7.3 7.2 7.3 7.0 7.2 7.4 7.1 7.2 7.3 7.5 7.1 7.4 7.5 7.2 7.5 7.3 7.6 8.0 8.4 8.8 8.9 8.7
6.8 6.6 6.4 6.3 6.2 6.5 6.3 6.3 6.5 6.6 6.7 6.8 7.0 7.0 7.1 7.2 7.3 7.2 7.2 7.4 7.5 7.5 7.5 7.5 7.5 7.3 7.2 7.1 7.0 7.3 7.3 7.3 7.4 7.4 7.5 7.1 7.5 7.3 7.3 7.5 7.5 7.4 7.5 8.1 8.3 8.2 8.4
6.7 6.5 6.2 6.1 6.1 6.3 6.3 6.4 6.6 6.7 6.7 6.9 6.9 7.1 7.2 7.2 7.2 7.2 7.3 7.3 7.4 7.4 7.5 7.5 7.5 7.3 7.2 7.0 7.2 7.4 7.5 7.4 7.5 7.5 7.7 7.4 7.1 7.4 7.4 7.2 7.5 7.4 7.6 7.7 8.4 8.3 8.3
6.6 6.5 6.1 6.3 6.1 6.3 6.4 6.6 6.7 6.7 6.9 7.0 7.1 7.1 7.1 7.0 7.1 7.2 7.4 7.5 7.6 7.6 7.5 7.5 7.5 7.4 7.3 7.2 7.5 7.4 7.4 7.6 7.4 7.4 7.2 7.3 7.3 7.2 7.2 7.3 7.5 7.5 7.5 7.6 7.7 7.8 7.8
6.5 6.4 6.4 6.2 6.2 6.4 6.4 6.7 6.7 6.7 6.9 7.1 7.1 7.1 7.1 7.3 7.4 7.6 7.7 7.7 7.6 7.7 7.5 7.4 7.3 7.3 7.3 7.4 7.3 7.3 7.3 7.4 7.2 7.2 7.2 7.2 7.1 7.1 7.1 7.3 7.2 7.2 7.4 7.4 7.6 7.3 7.7
6.2 6.3 6.2 6.3 6.3 6.3 6.6 6.8 6.9 6.8 7.0 7.1 7.1 7.2 7.3 7.6 7.6 7.7 7.8 7.7 7.5 7.4 7.5 7.3 7.1 7.0 7.0 7.1 7.0 7.2 7.5 7.3 7.1 7.3 7.2 7.1 7.1 7.2 7.2 7.0 7.0 7.1 7.1 7.2 7.5 7.5 7.6
6.4 6.3 6.4 6.6 6.4 6.4 6.6 7.0 6.9 7.0 7.2 7.2 7.2 7.3 7.6 7.8 7.8 7.9 7.7 7.7 7.6 7.6 7.4 7.1 6.9 6.9 7.1 7.3 7.3 7.3 7.6 7.3 7.2 7.3 7.0 7.2 7.1 7.1 7.1 7.0 7.1 7.2 7.3 7.3 7.2 7.3 7.3
6.5 6.3 6.4 6.4 6.5 6.7 6.9 7.1 7.1 7.2 7.2 7.3 7.4 7.6 7.8 7.8 7.9 7.8 7.7 7.6 7.5 7.4 7.4 7.2 7.1 7.2 7.2 7.2 7.4 7.6 7.4 7.3 7.3 7.2 7.1 7.0 6.9 7.0 7.2 7.2 7.3 7.3 7.1 6.9 7.0 7.0 7.3
6.4 6.2 6.5 6.7 6.8 6.9 6.9 7.2 7.1 7.2 7.3 7.4 7.6 7.7 7.8 7.8 7.8 7.7 7.6 7.6 7.5 7.4 7.2 6.8 7.1 6.8 7.1 7.1 7.1 7.2 7.2 7.4 7.2 7.1 7.1 7.0 7.0 7.1 7.3 7.2 7.0 7.1 7.0 7.1 7.3 7.2 7.0
6.0 6.5 6.7 6.8 6.7 6.9 7.0 7.1 7.1 7.2 7.3 7.5 7.6 7.7 7.7 7.7 7.7 7.6 7.6 7.6 7.4 7.3 4.4 6.7 6.5 6.5 6.5 7.2 6.6 7.0 7.1 7.4 7.1 7.2 7.0 6.9 7.0 7.1 7.2 6.9 6.8 6.7 6.9 7.1 7.3 7.5 7.3
6.2 6.5 6.6 6.7 6.8 6.9 7.0 7.1 7.2 7.3 7.4 7.6 7.6 7.6 7.7 7.7 7.7 7.7 7.8 7.8 7.6 7.4 5.9 6.3 6.0 6.5 6.4 6.7 6.8 6.9 7.4 7.6 7.3 7.0 6.9 6.9 6.9 6.9 6.5 6.8 6.8 6.9 7.0 7.5 7.6 7.7 7.1
6.3 6.3 6.7 6.7 6.8 7.0 7.0 7.0 7.2 7.3 7.5 7.6 7.6 7.6 7.6 7.7 7.8 7.9 7.9 7.8 7.6 6.6 6.2 6.2 6.2 6.0 6.1 6.2 6.6 6.7 6.9 7.6 7.0 7.3 7.4 7.4 7.0 6.7 6.8 7.3 7.7 7.2 7.0 6.5 6.3 6.7 6.0
6.5 6.5 6.7 6.8 6.9 6.9 6.9 7.0 7.2 7.4 7.5 7.5 7.5 7.6 7.6 7.7 7.9 8.0 8.0 7.8 7.4 5.9 6.2 6.1 5.9 5.9 6.2 6.3 5.9 6.0 6.6 6.5 6.1 6.1 6.0 6.5 7.5 7.1 6.6 6.3 6.7 7.2 7.0 6.8 5.5 5.9 6.6
6.5 6.6 6.8 6.9 6.8 6.9 6.9 7.1 7.2 7.4 7.4 7.5 7.5 7.5 7.6 7.9 7.9 8.0 8.1 7.9 6.3 6.1 6.3 6.2 6.1 6.1 6.2 6.0 5.9 5.6 5.5 5.4 5.0 5.0 5.4 5.6 6.9 6.6 6.7 6.3 6.8 6.9 7.2 7.2 7.3 7.1 6.6
6.4 6.7 6.8 6.8 6.8 6.8 7.0 7.2 7.3 7.4 7.4 7.5 7.4 7.4 7.7 7.9 7.9 8.0 8.0 7.4 6.4 6.2 6.2 6.3 6.2 6.0 6.1 5.9 5.9 5.5 5.1 4.8 4.7 4.9 4.9 4.9 5.6 6.8 7.2 7.1 7.0 7.1 6.7 7.3 7.3 4.9 4.9
6.4 6.6 6.7 6.8 6.8 6.9 7.0 7.1 7.2 7.4 7.4 7.4 7.4 7.5 7.8 7.8 7.8 7.9 7.9 7.0 6.6 6.4 6.3 6.3 6.3 6.1 5.9 5.6 5.3 5.1 4.8 4.8 4.9 5.0 4.8 5.1 5.1 6.8 6.4 6.3 6.4 6.8 6.5 6.5 6.7 6.3 5.1
6.4 6.7 6.7 6.7 7.0 6.9 7.0 7.1 7.2 7.4 7.4 7.4 7.6 7.9 7.7 7.8 7.8 7.8 7.6 7.2 6.8 6.5 6.6 6.5 6.2 6.1 6.0 5.7 5.1 4.8 4.7 4.8 4.7 4.7 5.0 4.8 5.2 5.5 6.2 6.0 6.3 6.7 6.5 6.5 6.5 6.4 6.1
6.4 6.7 6.7 6.8 6.9 7.0 7.1 7.2 7.3 7.3 7.4 7.5 7.7 7.8 7.8 7.8 7.7 7.8 7.2 6.8 6.6 6.4 6.5 6.4 6.2 6.0 5.9 5.8 5.3 5.0 4.7 4.8 4.5 4.6 5.1 5.1 5.4 5.5 6.3 6.5 6.7 7.1 7.1 6.4 6.3 6.0 5.8
6.7 6.6 6.7 6.8 6.9 7.0 7.1 7.2 7.3 7.3 7.4 7.5 7.7 7.8 7.7 7.7 7.6 7.5 7.2 6.8 6.6 6.3 6.4 6.5 6.2 6.0 5.8 5.7 5.7 5.5 5.1 4.7 4.9 4.8 5.0 5.5 5.6 5.4 5.4 5.6 5.9 6.3 6.7 6.3 6.0 5.8 6.2
6.5 6.5 6.7 6.8 6.9 7.0 7.2 7.2 7.3 7.4 7.4 7.5 7.7 7.8 7.8 7.6 7.5 7.3 7.2 6.8 6.5 6.4 6.4 6.5 6.2 6.2 6.2 6.0 5.5 5.1 5.0 4.8 4.8 5.0 5.2 5.9 5.8 5.5 5.7 6.3 6.1 6.4 6.2 6.4 6.3 6.3 6.1
6.5 6.7 6.9 6.9 6.9 7.1 7.1 7.2 7.3 7.3 7.4 7.6 7.8 7.8 7.7 7.6 7.4 7.1 7.0 6.8 6.5 6.6 6.4 6.3 6.2 6.0 5.9 5.9 5.7 5.7 5.0 4.7 4.9 5.4 5.8 5.6 5.8 6.0 6.5 6.4 6.3 6.2 6.1 6.0 6.3 6.4 6.3
6.6 6.7 6.9 6.8 7.0 7.1 7.1 7.2 7.3 7.3 7.5 7.6 7.8 7.9 7.8 7.4 7.2 6.9 6.8 6.6 6.5 6.4 6.2 6.1 6.1 5.9 5.8 5.6 5.4 4.9 4.6 4.6 5.0 5.3 5.4 5.4 5.6 5.6 6.5 6.4 6.7 6.3 5.8 5.9 5.9 6.0 6.2
6.7 6.8 6.9 7.0 7.0 7.0 7.1 7.2 7.4 7.4 7.5 7.6 7.7 7.8 7.7 7.5 7.1 6.9 6.7 6.6 6.4 6.4 6.2 6.0 5.8 5.8 5.8 5.8 5.4 5.0 5.2 5.3 5.4 5.4 5.3 5.5 5.4 5.2 5.5 6.6 6.5 6.2 6.1 6.1 5.6 6.4 6.9
6.8 7.0 7.0 7.0 7.1 7.0 7.1 7.2 7.4 7.4 7.5 7.6 7.7 7.8 7.7 7.7 7.0 6.9 6.8 6.5 6.3 6.1 6.0 5.9 5.7 5.8 5.8 5.7 5.1 5.1 5.3 5.3 5.4 5.2 5.4 5.5 5.3 5.2 5.3 5.5 6.1 6.0 5.7 5.6 5.5 5.9 6.2
6.8 6.9 7.0 7.1 7.1 7.1 7.2 7.2 7.3 7.3 7.5 7.6 7.6 7.6 7.6 7.4 6.9 7.0 6.7 6.4 6.2 6.2 6.0 5.7 5.6 5.5 5.3 5.4 5.5 5.0 5.3 5.6 5.4 5.4 5.4 5.4 5.4 5.2 5.5 5.4 5.6 5.7 5.9 6.1 6.1 6.0 6.5
6.7 6.9 7.0 7.1 7.1 7.1 7.2 7.2 7.2 7.3 7.5 7.6 7.5 7.6 7.5 7.5 7.1 6.8 6.4 6.0 6.0 5.9 5.8 5.5 5.4 5.3 5.3 5.1 4.9 5.0 5.2 5.4 5.1 5.2 5.2 5.2 5.3 5.2 5.6 5.5 5.9 5.7 6.0 6.2 6.1 5.7 6.6
6.7 6.8 7.0 7.2 7.1 7.1 7.1 7.2 7.2 7.2 7.3 7.4 7.4 7.5 7.4 7.2 7.1 6.8 6.3 6.0 5.7 5.6 5.4 5.3 5.3 4.9 4.9 4.9 4.7 5.1 5.2 5.2 4.9 5.1 4.9 5.1 5.1 4.9 5.4 5.5 5.6 5.9 6.1 6.0 6.0 5.8 5.8
6.7 6.8 7.0 7.1 7.1 7.0 7.0 7.1 7.2 7.1 7.2 7.3 7.3 7.3 7.3 7.2 7.1 6.6 6.1 5.9 5.7 5.3 5.1 4.9 4.8 4.7 4.7 4.5 4.5 5.3 5.5 5.0 4.8 5.0 4.8 5.1 4.7 4.6 4.7 5.1 5.6 5.8 5.7 6.0 6.2 5.9 6.0
Wind_Speed
2 2 2 4 7 9 10 12 14 16 18 18 21 22 22 23 24 23 25 23 21 18 16 13 13 11 3 4 1 11 18 20 10 3 4 4 5 3 4 4 7 3 3 3 6 8 7
3 2 3 5 6 9 11 12 14 17 18 19 20 22 24 24 23 23 24 23 20 17 14 11 11 9 2 5 5 12 11 9 8 4 4 4 3 6 4 3 0 4 6 9 6 7 8
2 2 3 5 7 9 11 12 13 16 18 19 21 22 24 24 24 24 24 23 22 20 17 11 9 3 5 2 7 12 7 6 3 3 4 3 2 5 4 8 3 4 6 9 8 7 6
2 3 3 5 7 10 11 13 14 15 18 19 22 23 25 25 24 25 27 26 23 22 19 13 5 1 1 3 13 9 7 9 9 7 3 7 1 1 3 4 8 5 4 5 8 12 6
2 1 4 5 8 10 11 13 15 16 18 20 21 23 25 27 26 25 25 28 24 18 12 10 2 2 4 11 11 10 4 6 9 7 5 4 3 1 6 2 5 6 2 4 9 8 5
1 1 4 7 8 10 11 13 15 17 19 20 22 23 24 25 27 27 28 16 18 7 1 2 2 4 8 7 8 7 8 6 4 5 6 3 4 3 5 6 1 4 4 4 4 6 6
1 2 5 6 8 10 12 13 15 17 19 20 22 23 23 23 27 26 10 4 5 7 10 8 4 2 5 9 5 10 8 8 6 6 3 4 7 3 4 3 3 3 4 4 4 5 3
1 2 4 6 9 10 12 14 16 18 19 21 22 22 24 22 24 22 3 6 3 1 5 2 2 2 5 4 5 16 12 7 6 5 6 7 3 4 4 8 8 7 5 5 4 6 6
2 4 3 6 9 11 12 14 16 18 20 21 23 22 22 23 18 5 7 5 4 4 5 5 4 4 8 4 5 13 15 7 4 7 5 3 2 5 7 7 8 6 5 6 5 4 5
1 4 4 6 8 11 13 14 16 19 21 22 22 23 23 27 5 1 4 8 9 2 5 9 9 6 9 2 5 7 19 1 7 6 7 1 4 5 7 6 7 5 9 9 6 6 4
4 2 5 6 8 10 13 15 17 18 21 22 20 21 24 10 3 4 4 8 6 3 5 8 7 6 9 8 5 19 9 3 4 5 4 4 9 7 8 6 5 3 7 7 4 5 4
4 3 4 6 8 11 14 16 17 18 20 20 20 19 21 5 3 1 5 5 4 7 2 5 5 7 8 7 5 5 12 9 2 6 9 5 6 8 5 9 4 7 8 6 5 3 3
1 1 5 6 9 12 14 16 17 19 19 19 19 17 9 2 0 6 3 4 5 7 4 6 4 4 6 7 8 7 14 23 11 8 9 8 4 5 10 7 8 15 6 4 6 5 3
2 2 5 8 11 12 15 16 17 18 19 18 20 14 4 3 1 1 3 6 9 1 3 4 4 6 5 8 5 11 5 5 12 5 3 7 7 9 13 4 6 8 3 3 2 2 4
1 4 6 9 10 12 15 17 18 18 18 17 13 3 3 3 3 3 6 7 5 2 4 6 5 6 7 6 6 5 7 5 8 6 4 5 5 6 7 5 6 7 4 3 1 3 3
2 4 7 8 10 12 15 17 17 18 16 14 2 3 4 4 7 5 6 5 3 4 4 3 4 6 6 7 7 5 4 5 3 8 2 4 6 3 10 5 7 5 7 5 4 4 4
3 4 7 9 11 14 15 16 16 18 19 4 3 4 4 8 4 6 5 4 4 5 4 5 5 4 3 4 5 5 4 1 4 6 4 3 3 6 6 5 4 5 4 4 4 3 2
4 5 7 9 12 14 16 17 16 17 17 3 3 4 5 4 5 3 3 3 4 7 6 5 4 5 4 5 5 3 4 7 8 5 3 2 1 4 5 7 2 1 5 3 2 3 2
5 6 8 10 12 15 17 17 16 14 9 3 3 0 3 5 4 3 4 6 6 6 6 3 5 6 5 4 3 4 4 3 9 9 5 5 2 4 8 5 6 4 6 6 1 1 2
5 6 8 11 13 16 18 19 18 13 3 3 3 3 5 6 3 7 6 4 4 4 7 5 5 6 6 5 4 4 6 5 6 7 7 4 2 4 4 6 5 7 17 10 3 2 2
7 7 9 12 15 16 19 21 20 16 1 4 3 1 3 2 5 6 6 4 4 3 5 10 4 6 4 3 6 3 5 6 5 8 6 3 3 3 10 12 10 13 11 10 6 5 2
8 8 10 12 15 18 20 22 22 16 9 4 4 5 4 3 3 9 6 4 4 3 5 4 4 6 5 3 2 3 4 2 2 6 5 6 3 5 4 3 4 7 12 15 11 9 3
9 10 11 12 16 19 21 23 24 20 7 3 1 2 5 5 3 5 3 3 3 4 5 6 4 3 4 2 5 9 9 6 4 3 5 5 4 4 4 10 5 4 12 16 9 10 4
9 11 12 13 17 18 22 24 27 26 12 4 0 4 5 3 4 4 6 4 5 4 5 3 6 4 4 6 8 3 5 6 4 7 2 4 5 2 4 7 4 4 12 13 13 21 24
11 12 13 14 17 18 22 24 26 24 23 4 2 4 4 4 3 7 7 6 4 4 4 3 4 2 7 5 5 3 3 2 1 4 1 2 2 3 2 2 3 3 9 11 8 11 21
12 13 13 15 17 20 22 24 26 20 12 5 4 2 5 6 4 5 5 4 3 2 3 3 4 5 7 3 3 3 1 4 3 5 2 4 2 2 3 2 4 2 16 20 11 4 22
13 13 14 16 18 20 22 23 25 21 18 8 3 5 5 5 5 3 4 3 2 3 2 3 6 8 5 4 4 3 2 4 2 4 5 3 4 1 3 2 2 7 22 15 5 6 21
13 13 14 17 18 21 24 27 28 24 21 8 1 11 5 4 5 7 5 4 4 4 3 4 4 5 4 4 3 2 3 2 3 4 2 4 4 2 3 2 2 13 12 5 5 12 15
14 14 15 17 20 22 26 28 29 25 19 10 5 11 12 6 5 2 5 5 6 3 4 5 4 1 2 3 2 1 2 3 2 2 4 2 1 2 1 3 4 8 9 11 9 10 14
Wind_Direction
104 71 2 349 351 342 346 352 344 341 337 335 331 328 324 326 325 320 314 312 309 309 304 300 298 308 306 50 331 291 323 322 332 147 213 222 298 249 232 282 335 246 292 264 281 206 225
130 72 352 342 358 342 345 350 346 340 334 333 332 325 324 325 325 320 315 311 309 302 295 296 306 323 234 77 283 315 332 330 344 290 279 178 254 250 257 299 122 280 296 291 262 243 218
142 80 357 347 355 342 345 347 348 341 332 333 329 323 321 325 327 323 318 314 310 307 305 302 318 307 58 68 313 322 336 304 274 288 276 259 207 58 340 316 258 281 330 333 316 304 285
127 48 328 6 339 348 343 347 344 344 332 335 329 322 322 325 329 326 321 315 306 299 299 297 307 294 135 279 344 344 320 323 321 310 209 259 188 339 176 282 341 340 35 15 310 358 342
120 51 351 348 345 344 344 352 344 342 334 333 327 325 327 328 327 323 315 308 295 284 265 279 290 106 335 322 347 304 299 300 297 289 289 254 89 227 4 16 8 10 272 337 328 358 5
169 19 357 346 340 343 347 352 347 338 333 333 328 327 329 328 325 320 314 299 298 317 173 202 354 40 347 308 310 311 292 295 269 304 346 83 61 44 24 50 315 302 335 300 266 327 56
222 8 357 334 345 345 346 355 344 336 334 335 330 327 328 328 323 320 331 15 19 2 37 115 257 125 275 286 294 336 317 342 5 40 357 32 64 24 306 307 274 291 336 342 305 327 61
128 0 338 342 345 345 351 348 344 336 336 334 330 328 328 325 325 339 66 74 70 181 64 38 25 323 278 285 326 350 349 39 17 9 7 25 66 311 349 25 32 43 34 346 293 324 37
80 300 329 353 349 340 350 348 340 339 336 334 330 329 325 321 326 16 78 61 336 27 97 336 303 336 309 345 33 350 6 333 11 17 12 125 293 48 46 27 23 346 14 316 286 329 330
244 280 341 357 341 341 351 342 342 340 335 333 331 328 334 328 66 330 50 318 354 28 75 322 345 352 336 8 48 8 0 222 359 359 340 331 357 55 61 30 20 357 326 312 299 3 300
234 305 346 349 337 344 349 342 343 339 333 330 329 338 343 18 151 56 284 329 350 56 56 292 327 303 352 52 322 1 320 16 42 300 14 322 13 40 42 346 5 297 312 303 278 299 73
235 27 337 345 335 350 350 342 336 336 329 329 334 341 344 2 40 244 333 2 47 43 289 331 332 351 27 4 22 23 23 36 63 4 0 19 333 45 347 314 351 332 347 4 11 37 51
175 353 1 335 350 354 342 336 334 333 329 332 333 334 340 297 262 317 25 47 44 89 284 325 324 342 34 350 24 43 38 42 36 10 11 335 30 354 14 357 348 357 32 357 8 7 228
166 36 359 357 358 348 337 332 335 331 331 335 329 324 303 235 248 87 55 57 70 289 335 354 336 62 58 10 12 27 39 46 30 37 354 19 333 21 338 355 292 313 40 132 247 292 295
134 39 7 4 351 344 334 334 338 334 333 335 330 345 328 271 201 76 72 54 168 8 316 327 317 44 8 348 6 73 60 43 26 40 43 3 282 318 351 342 30 323 39 273 266 12 53
89 32 10 358 345 342 339 338 342 335 331 335 56 21 296 326 132 64 71 115 76 3 359 2 65 23 32 338 22 25 62 354 16 9 107 314 303 339 332 358 43 51 351 23 14 36 338
68 30 9 351 346 345 341 341 348 336 334 282 58 53 269 7 64 52 98 107 103 6 61 63 17 48 50 13 357 36 33 50 4 329 51 26 113 307 351 2 341 12 22 26 95 96 161
64 26 9 350 354 343 344 348 350 348 352 116 92 49 309 43 52 40 60 95 110 8 9 69 70 51 15 347 24 65 68 27 1 318 10 323 184 291 278 283 158 220 42 105 97 294 219
79 27 4 359 355 348 348 350 350 355 6 110 97 248 330 78 102 48 58 61 69 31 14 66 40 37 11 35 68 31 47 23 0 32 11 329 335 337 346 1 356 353 351 9 145 116 224
73 36 13 1 359 358 352 348 350 347 357 99 81 52 346 33 70 106 111 74 98 22 47 51 53 48 19 19 5 9 23 357 346 22 19 15 295 180 212 245 270 305 306 322 232 227 209
87 40 24 5 4 3 358 353 350 356 151 103 47 201 184 66 10 77 83 76 69 55 8 30 58 32 21 351 353 44 13 340 338 6 1 59 283 275 281 270 270 263 313 343 322 201 212
83 55 33 17 12 9 3 2 1 17 125 78 118 122 25 109 70 62 36 35 73 68 35 40 60 337 12 88 118 291 28 319 301 331 341 356 291 319 302 286 281 73 355 17 61 48 14
84 59 42 27 23 16 9 11 10 23 107 106 316 60 99 338 47 71 348 110 53 110 51 59 60 19 358 245 255 248 206 237 257 337 314 348 323 340 285 324 335 63 357 353 54 35 302
86 63 49 37 33 23 17 15 19 35 81 108 179 100 83 24 80 98 100 86 84 56 110 48 41 28 274 298 286 248 175 215 236 263 238 316 327 301 294 326 57 331 347 347 327 28 15
90 70 56 44 39 28 24 22 31 45 60 84 28 94 105 92 79 75 86 104 75 44 75 79 4 266 298 334 6 32 44 106 151 237 258 118 354 328 17 301 202 347 355 339 349 7 8
96 77 64 52 42 32 28 28 40 47 63 84 45 58 95 120 338 280 89 68 108 59 22 16 338 339 20 35 28 59 78 2 38 335 66 85 51 114 326 322 18 324 323 323 304 337 345
99 82 70 59 46 34 33 33 46 50 59 86 50 23 84 100 350 49 84 120 92 84 96 354 344 353 24 20 49 44 336 348 10 349 333 349 339 31 308 315 287 344 330 317 65 322 316
103 88 74 63 53 41 37 42 45 48 50 75 15 21 108 99 26 40 37 62 46 54 105 280 36 358 18 52 62 305 48 317 21 308 30 354 345 348 328 324 357 6 340 45 308 296 320
108 91 77 66 57 49 48 45 44 50 52 72 58 23 71 83 131 93 80 78 91 151 131 21 150 152 164 77 30 29 352 9 9 299 355 38 182 276 169 260 276 298 293 295 299 310 315